Terug naar catalogus

DELTA 1 DEB

ActiefLEO
NORAD 39098·DEBRIS·🇺🇸 United States

Gelanceerd Jul 14, 1977 vanaf Cape Canaveral Space Force Station

Loading…

Volgende Passages (komende 24 uur)

TLE

VerouderendSource: Space-Track

Epoch: Sep 12, 2026, 05:59 UTC

1 39098U 77065GK  26255.24950255  .00003607  00000-0  57310-3 0  9991
2 39098  29.0331 231.6210 0517371 296.0184  58.8002 14.07603205637634

Volg DELTA 1 DEB in realtime met AllMySat

Download on the App Store